Weather in Yagodnoe

Russia / Samara Oblast     53°36′39″N   49°02′21″E
temp.,
°C
wind,
m/s
gust,
m/s
humid.,
%
clouds,
%
prec.,
mm/h
press.,
hPa
HPBL,
m
1 march, mon
mon101:00−16nw369499 0.0 1017127
04:00−18nw349585 0.0 101850
07:00−19nw339678 0.0 102038
10:00−16nnw379380 0.0 1022302
13:00−12nnw358792 0.0 1022490
16:00−11n238996 0.0 1022370
19:00−15ssw129699 0.0 102220
22:00−15sw349466 0.0 102135
2 march, tue
tue201:00−13sw589493 0.0 1019155
04:00−11sw6119397 0.0 1016282
07:00−7sw71294100 0.8 1011495
10:00−3sw81393100 1.6 1009620
13:000wsw71296100 1.0 1005776
16:000wsw71398100 1.9 1003697
19:00+1w5997100 0.4 1002383
22:00−3w599494 0.6 1002172
3 march, wed
wed301:00−6wnw479227 0.0 1002104
04:00−8wnw479214 0.0 1003100
07:00−9wnw369325 0.0 100497
10:00−6wnw479242 0.0 1005246
13:00−3nw578979 0.0 1005566
16:00−2nw589190 0.2 1006648
19:00−8nw499073 0.3 1007145
22:00−9wnw499147 0.3 1009179
4 march, thu
thu401:00−11wnw46929 0.0 1009106
04:00−12wsw45934 0.0 101083
07:00−10wsw5109228 0.0 1009196
10:00−6wsw6118927 0.0 1008412
13:00−2wsw7118585 0.0 1007923
16:00−1sw9148592 0.1 1004951
19:00−1sw91686100 0.1 1002846
22:000sw91688100 0.1 1001956
5 march, fri
fri501:000sw91684100 0.0 999880
04:00−2sw8178499 0.0 999693
07:00−1wsw7159195 0.1 1001559
10:00−4wnw5118495 0.4 1005429
13:00−3wnw478052 0.0 1008498
16:00−3wnw368430 0.0 1011392
19:00−8nw22844 0.0 101221
22:00−10nw228520 0.0 101421